Weather observations for the past three days for
Albert Whitted Airport
Imperial (Metric)
Date Time (edt) Wind (mph) Vis. (mi.) Weather Sky Cond. Temperature (ºF) Relative Humidity Wind Chill (°F) Heat Index (°F) Pressure Precipitation (in)
Air Dwpt 6 hour altimeter (in) sea level (mb) 1 hr 3 hr 6 hr
Max. Min.
19 06:53 S 7 10.00 Fair CLR 81 77 88% 88 30.03 1016.9
19 05:53 S 8 10.00 Fair CLR 81 75.9 85% 87 30.02 1016.6
19 04:53 SE 9 10.00 Fair CLR 81 75.9 85% 87 30.01 1016.2
19 03:53 S 6 10.00 Fair CLR 82 75.9 82% 89 30.01 1016.3
19 02:53 SE 8 10.00 Fair CLR 82 75.9 82% 89 30.03 1016.7
19 01:53 S 7 10.00 Fair CLR 82.9 73.9 84.9 82 74% 89 30.04 1017.1
19 00:53 S 12 10.00 Fair CLR 82.9 73.9 74% 89 30.05 1017.5
18 23:53 SE 8 10.00 Fair CLR 82.9 73.9 74% 89 30.06 1018.0
18 22:53 E 8 10.00 Fair CLR 82.9 75 77% 90 30.05 1017.7
18 21:53 E 8 10.00 Fair CLR 84 75 74% 92 30.04 1017.3
18 20:53 SE 3 10.00 A Few Clouds FEW020 84 73 70% 90 30.03 1016.9
18 19:53 NE 12 10.00 Thunderstorm SCT020 84.9 75 93 84 72% 93 30.03 1017.0
18 18:53 Vrbl 5 10.00 Partly Cloudy SCT020 93 75.9 58% 106 30 1015.9
18 17:53 W 6 10.00 Fair CLR 91.9 75.9 60% 104 30 1015.7
18 16:53 NW 5 10.00 Fair CLR 91 75.9 61% 103 30.01 1016.0
18 15:53 Vrbl 6 10.00 Fair CLR 90 73.9 59% 99 30.02 1016.4
18 14:53 NW 9 10.00 Thunderstorm CLR 91.9 73.9 56% 102 30.03 1016.7
18 13:53 SE 9 10.00 Fair CLR 91 77 91.9 84 64% 105 30.04 1017.2
18 12:53 S 8 10.00 Partly Cloudy SCT045 90 78.1 68% 105 30.06 1017.7
18 11:53 SE 8 10.00 Fair CLR 89.1 79 72% 105 30.08 1018.4
18 10:53 S 7 10.00 Fair CLR 88 79 75% 103 30.09 1018.7
18 09:53 S 7 10.00 Fair CLR 86 79 80% 100 30.08 1018.4
18 08:53 SE 9 10.00 Fair CLR 84.9 78.1 80% 97 30.07 1018.0
18 06:53 SE 10 10.00 Fair CLR 82 75 79% 89 30.02 1016.6
18 05:53 S 6 10.00 Fair CLR 81 75.9 85% 87 30 1015.9
18 04:53 SE 7 10.00 Fair CLR 82 77 85% 90 30 1015.9
18 03:53 S 5 10.00 Fair CLR 81 77 88% 88 30 1015.9
18 02:53 SE 10 10.00 Fair CLR 82 75.9 82% 89 30.01 1016.3
18 01:53 E 8 10.00 Fair CLR 84 77 86 82.9 80% 94 30.03 1016.9
18 00:53 NE 3 10.00 Fair CLR 82.9 77 82% 92 30.05 1017.5
17 23:53 E 8 10.00 Fair CLR 84 77 80% 94 30.06 1017.7
17 22:53 E 7 10.00 Fair CLR 82.9 77 82% 92 30.06 1017.8
17 21:53 E 8 10.00 Fair CLR 82.9 77 82% 92 30.06 1017.8
17 20:53 NE 7 10.00 Fair CLR 86 77 75% 97 30.04 1017.2
17 19:53 E 3 10.00 Fair CLR 84.9 75 91.9 84.9 72% 93 30.03 1016.9
17 18:53 Calm 10.00 Mostly Cloudy SCT025 BKN055 84.9 75 72% 93 30.03 1016.9
17 17:53 N 13 10.00 Mostly Cloudy SCT040 BKN060 86 77 75% 97 30.06 1017.9
17 16:53 NW 8 10.00 Mostly Cloudy SCT030 BKN050 89.1 75 63% 99 30.03 1017.0
17 15:53 W 8 10.00 Mostly Cloudy SCT030 BKN050 88 75.9 68% 99 30.03 1016.9
17 14:53 N 13 10.00 Thunderstorm CLR 86 73.9 67% 94 30.05 1017.5
17 13:53 S 5 10.00 Thunderstorm in Vicinity CLR 91 75.9 93 82 61% 103 30.06 1017.7
17 12:53 SE 8 10.00 Partly Cloudy SCT030 90 78.1 68% 105 30.07 1018.1
17 11:53 S 10 10.00 Partly Cloudy SCT040 89.1 78.1 70% 103 30.07 1018.1
17 10:53 S 10 10.00 Fair CLR 88 79 75% 103 30.07 1018.1
17 09:53 S 9 10.00 Fair CLR 84.9 78.1 80% 97 30.07 1018.3
17 08:53 S 9 10.00 Fair CLR 82.9 77 82% 92 30.07 1018.4
17 06:53 SE 7 10.00 NULL NULL 81 75.9 85% 87 30.03 1016.9
17 05:53 SE 8 10.00 NULL NULL 82 75.9 82% 89 30.01 1016.1
17 04:53 SE 7 10.00 NULL NULL 81 75.9 85% 87 30 1015.8
17 03:53 Calm 10.00 NULL NULL 81 75.9 85% 87 30 1015.9
17 02:53 SE 8 10.00 NULL NULL 81 77 88% 88 30.01 1016.3
17 01:53 S 6 10.00 NULL NULL 82 75.9 87.1 82 82% 89 30.02 1016.6
17 00:53 SE 6 10.00 NULL NULL 82 75 79% 89 30.05 1017.4
16 23:53 SE 7 10.00 NULL NULL 82.9 75 77% 90 30.07 1018.1
16 22:53 SE 10 10.00 NULL NULL 82.9 75.9 79% 91 30.06 1017.9
16 21:53 E 13 10.00 NULL NULL 84.9 77 77% 95 30.06 1018.0
16 20:53 E 17 10.00 Fair CLR 86 75.9 72% 96 30.05 1017.6
16 19:53 E 10 10.00 NULL NULL 87.1 78.1 89.1 80.1 75% 100 30.04 1017.1 0.05
16 18:53 E 9 10.00 NULL NULL 88 78.1 73% 102 30.01 1016.3
16 17:53 E 8 10.00 NULL NULL 88 77 70% 100 30.01 1016.1
16 16:53 NE 6 10.00 Fair CLR 88 75 66% 98 30.02 1016.4 0.05
16 15:53 NE 3 10.00 Fair CLR 87.1 73.9 65% 95 30.02 1016.6
16 14:53 Calm 4.00 Thunderstorm in Vicinity Haze FEW100 82.9 73 72% 89 30.05 1017.7 0.05
16 13:53 W 5 10.00 Thunderstorm BKN050 82 73.9 91 80.1 77% 88 30.07 1018.1 0.17 0.17
16 12:53 S 12 10.00 Thunderstorm BKN030 91 81 72% 111 30.06 1017.9
16 11:53 SE 7 10.00 NULL NULL 89.1 78.1 70% 103 30.06 1017.8
16 10:53 SE 5 10.00 Partly Cloudy SCT050 87.1 80.1 80% 103 30.07 1018.1
16 09:53 SE 6 10.00 Fair CLR 87.1 80.1 80% 103 30.07 1018.1
16 08:53 S 6 10.00 A Few Clouds FEW009 84 79 85% 96 30.05 1017.7
16 07:53 E 6 10.00 Partly Cloudy SCT010 82.9 78.1 84 82 85% 93 30.03 1017.0
Date Time (edt) Wind (mph) Vis. (mi.) Weather Sky Cond. Air Dwpt Max. Min. Relative Humidity Wind Chill (°F) Heat Index (°F) altimeter (in) sea level (mb) 1 hr 3 hr 6 hr
6 hour
Temperature (ºF) Pressure Precipitation (in)